CZ-3A DEB, 35551

Orbit data source: Space-Track

CZ-3A DEB, 35551 is space debris in HEO originally from a launch on Fri, 02 Feb 2007 UTC launched from the Xichang Space Center, China (XSC). Debris objects in space refer to the collection of defunct objects orbiting the Earth. Examples of debris include non-operational satellites, rocket bodies, and fragments generated from explosions, collisions, or faulty payload assembly.

Loading next visibility...
Identifier
35551, 2007-003K
Orbit
HEO
Country
Flag of CNCN / PRC
Related business
Manufacturer
Unknown
Mission
Spacecraft
Bus & Motor
Unknown
Mass
Unknown
Launch date (UTC)
2007-02-02 (19 years ago)
Launch vehicle
Unknown
Launch site
Xichang Space Center, China (XSC)
Object type
Payload
Rocket body
Debris
Shape & HBR
Unknown shape, 0.1 m
Radar Cross Section
Medium (>0.1 m² and <1 m²)

Expand to show TLE details & history
Last TLE update: 3 days ago

TLE from 3 days ago
0 CZ-3A DEB
1 35551U 07003K   25289.13252601  .00000338  00000-0  60127-2 0  9997
2 35551  25.3674 313.5274 7231018 357.7859   0.3850  2.16424494 15771
Epoch: 2025-10-16T03:10Z
TLE epoch observation values (Epoch: 2025-10-16T03:10:50.247Z)
Latitude
0.00022°
Longitude
-119.07523°
Altitude
628.825 km
Speed
9.898 km/s
True Right ascension
20h 54m 07s
True Declination
0° 00' 01"
Sunlit
Object was in daylight at epoch
Visualization orbit readout
Latitude
Unknown
Longitude
Unknown
Altitude
Unknown
Speed
Unknown
Apparent Right ascension
Unknown
Apparent Declination
Unknown
Sunlit
N/A
Visualization observer readout
Local Sidereal Time
10:38:00
Azimuth
Unknown
Elevation
Unknown
Doppler factor
Unknown
Orbital elements
Apogee altitude
37,130.428 km
Perigee altitude
613.582 km
Semi-major axis
25,250.142 km
Eccentricity
0.7231
Inclination
25.3674°
RAAN
313.5274°
Arg. of periapsis
357.7859°
True anomaly
3.46668°
Mean anomaly
0.385°
Eccentric anomaly
1.39005°
Mean motion
0.54094 °/min
Orbital period
665.51 mins
BSTAR
0.0060127
Loading maneuver chart data...
Computing Atmospheric mass density...
Loading historical data...
Loading historical data...
Loading historical data...
Loading historical data...
Loading historical data...
Loading historical data...
Loading historical data...

Documentation

Showing up to 5 results
|